Content
SEND FEEDBACK

Daily
Averages
Monthly
Summary
United States of America

MOUNT SHASTA, CALIFORNIA


Home > North America > United States > California
Elevation: 3679 feet     Latitude: 41 19N     Longitude: 122 19W

WEATHER
 
SELECT A DAY
Number of Records: 236,077;   Date Range: 1/1/95 - 12/16/14
 
SHARE

PRINT THIS DATA

[ ← Previous Day ]
WEATHER ALMANAC - NOVEMBER 11, 2013
[ Next Day → ]
[ °C ]   °F
Weather ElementAverageHighLow
Temperature52.8 °F64.9 °F (11:56 am)39 °F (5:56 am)
Dewpoint23.3 °F25 °F (9:56 am)21 °F (11:56 am)
Humidity33.8 %55 % (5:56 am)19 % (11:56 am)
Barometer30.20 in30.23 in (7:56 am)30.16 in (1:56 pm)
Wind Speed1.1 mph4.6 mph (4:56 pm)
Weather ElementAverage
Visibility10 mi
Wind DirectionNNE (9.1 °)

Weather ElementTotal
Precipitation---
Heating Degree Days13.1 (Base 65)
Growing Degree Days2 (Base 50)
Averaged from 23 records on November 11, 2013
WEATHER CONDITIONS BREAKOUT
WIND DIRECTION BREAKOUT
WEATHER BY HOUR - NOVEMBER 11, 2013
[ °C ]   °F
Local TimeTemperatureDewpointHumidityBarometerVisibilityWind DirectionWind SpeedGust SpeedPrecipitationEventsConditions
1:56 AM39.9 °F24.1 °F53 %30.19 in10.0 miCalmClear
2:56 AM39.9 °F24.1 °F53 %30.18 in10.0 miCalmClear
3:56 AM43.0 °F23.0 °F45 %30.18 in10.0 miCalmClear
4:56 AM43.0 °F23.0 °F45 %30.19 in10.0 miCalmClear
5:56 AM39.0 °F24.1 °F55 %30.21 in10.0 miCalmClear
6:56 AM39.0 °F23.0 °F53 %30.22 in10.0 miCalmClear
7:56 AM41.0 °F23.0 °F49 %30.23 in10.0 miCalmClear
8:56 AM50.0 °F24.1 °F36 %30.22 in10.0 miCalmClear
9:56 AM55.9 °F25.0 °F30 %30.21 in10.0 miCalmClear
10:56 AM64.0 °F23.0 °F21 %30.20 in10.0 miCalmClear
11:56 AM64.9 °F21.0 °F19 %30.19 in10.0 miVariable3.5 mphClear
12:56 PM64.0 °F23.0 °F21 %30.18 in10.0 miCalmClear
1:56 PM64.9 °F24.1 °F21 %30.16 in10.0 miCalmClear
2:56 PM63.0 °F23.0 °F22 %30.16 in10.0 miVariable3.5 mphClear
3:56 PM60.1 °F24.1 °F25 %30.17 in10.0 miCalmClear
4:56 PM59.0 °F23.0 °F25 %30.18 in10.0 miEast (100°)4.6 mphClear
5:56 PM57.0 °F23.0 °F27 %30.21 in10.0 miVariable3.5 mphClear
6:56 PM57.9 °F21.9 °F25 %30.20 in10.0 miESE (110°)3.5 mphClear
7:56 PM55.0 °F24.1 °F30 %30.22 in10.0 miCalmClear
8:56 PM53.1 °F24.1 °F32 %30.22 in10.0 miCalmClear
9:56 PM52.0 °F23.0 °F32 %30.22 in10.0 miCalmClear
10:56 PM54.0 °F21.9 °F29 %30.21 in10.0 miVariable3.5 mphClear
11:56 PM54.0 °F23.0 °F30 %30.22 in10.0 miVariable3.5 mphClear
Hourly data recorded from KMHS, located miles away from Mount Shasta, California







STORIES FROM OUR PARTNERS